Time,TemperatureF,DewpointF,PressureIn,WindDirection,WindDirectionDegrees,WindSpeedMPH,WindSpeedGustMPH,Humidity,HourlyPrecipIn,Conditions,Clouds,dailyrainin,SoftwareType,DateUTC
2013-04-28 00:03:00,49.0,-99.9,30.20,East,95,0.0,0.0,100,0.00,,,0.79,,2013-04-28 04:03:00,
2013-04-28 00:13:00,49.0,49.0,30.20,East,95,0.0,0.0,100,0.00,,,0.79,,2013-04-28 04:13:00,
2013-04-28 00:23:00,49.0,49.0,30.20,East,95,0.0,0.0,100,0.00,,,0.79,,2013-04-28 04:23:00,
2013-04-28 00:32:00,49.0,49.0,30.21,East,95,0.0,0.0,100,0.00,,,0.79,,2013-04-28 04:32:00,
2013-04-28 00:43:00,49.0,49.0,30.21,East,95,0.0,0.0,100,0.00,,,0.79,,2013-04-28 04:43:00,
2013-04-28 00:53:00,49.0,49.0,30.21,East,95,0.0,0.0,100,0.00,,,0.79,,2013-04-28 04:53:00,
2013-04-28 01:02:00,49.0,49.0,30.20,East,95,0.0,0.0,100,0.00,,,0.79,,2013-04-28 05:02:00,
2013-04-28 01:12:00,49.0,49.0,30.20,East,95,0.0,0.0,100,0.00,,,0.79,,2013-04-28 05:12:00,
2013-04-28 01:22:00,49.0,49.0,30.20,East,95,0.0,0.0,100,0.00,,,0.79,,2013-04-28 05:22:00,
2013-04-28 01:32:00,48.0,48.0,30.20,East,95,0.0,0.0,100,0.04,,,0.83,,2013-04-28 05:32:00,
2013-04-28 01:42:00,48.0,48.0,30.20,East,95,0.0,0.0,100,0.04,,,0.83,,2013-04-28 05:42:00,
2013-04-28 01:52:00,48.0,48.0,30.20,East,95,0.0,0.0,100,0.04,,,0.83,,2013-04-28 05:52:00,
2013-04-28 02:01:00,48.0,48.0,30.20,East,95,0.0,1.0,100,0.04,,,0.83,,2013-04-28 06:01:00,
2013-04-28 02:12:00,48.0,48.0,30.20,East,95,0.0,1.0,100,0.04,,,0.83,,2013-04-28 06:12:00,
2013-04-28 02:21:00,48.0,48.0,30.20,East,95,0.0,1.0,100,0.04,,,0.83,,2013-04-28 06:21:00,
2013-04-28 02:32:00,48.0,48.0,30.19,East,95,0.0,0.0,100,0.00,,,0.83,,2013-04-28 06:32:00,
2013-04-28 02:42:00,48.0,48.0,30.19,East,95,0.0,0.0,100,0.00,,,0.83,,2013-04-28 06:42:00,
2013-04-28 02:52:00,48.0,48.0,30.19,East,95,0.0,0.0,100,0.00,,,0.83,,2013-04-28 06:52:00,
2013-04-28 03:02:00,48.0,48.0,30.17,East,95,0.0,0.0,100,0.00,,,0.83,,2013-04-28 07:02:00,
2013-04-28 03:11:00,48.0,48.0,30.17,East,95,0.0,0.0,100,0.00,,,0.83,,2013-04-28 07:11:00,
2013-04-28 03:22:00,48.0,48.0,30.17,East,95,0.0,0.0,100,0.00,,,0.83,,2013-04-28 07:22:00,
2013-04-28 03:32:00,48.0,48.0,30.16,East,95,0.0,0.0,100,0.00,,,0.83,,2013-04-28 07:32:00,
2013-04-28 03:42:00,48.0,48.0,30.16,East,95,0.0,0.0,100,0.00,,,0.83,,2013-04-28 07:42:00,
2013-04-28 03:52:00,48.0,48.0,30.16,East,95,0.0,0.0,100,0.00,,,0.83,,2013-04-28 07:52:00,
2013-04-28 04:02:00,48.0,48.0,30.17,East,95,0.0,0.0,100,0.00,,,0.83,,2013-04-28 08:02:00,
2013-04-28 04:11:00,48.0,48.0,30.17,East,95,0.0,0.0,100,0.00,,,0.83,,2013-04-28 08:11:00,
2013-04-28 04:21:00,48.0,48.0,30.17,East,95,0.0,0.0,100,0.00,,,0.83,,2013-04-28 08:21:00,
2013-04-28 04:32:00,48.0,48.0,30.16,East,95,0.0,1.0,100,0.01,,,0.84,,2013-04-28 08:32:00,
2013-04-28 04:42:00,48.0,48.0,30.16,East,95,0.0,1.0,100,0.01,,,0.84,,2013-04-28 08:42:00,
2013-04-28 04:52:00,48.0,48.0,30.16,East,95,0.0,1.0,100,0.01,,,0.84,,2013-04-28 08:52:00,
2013-04-28 05:01:00,48.0,48.0,30.14,SW,222,0.0,2.0,100,0.04,,,0.87,,2013-04-28 09:01:00,
2013-04-28 05:12:00,48.0,48.0,30.14,SW,222,0.0,2.0,100,0.04,,,0.87,,2013-04-28 09:12:00,
2013-04-28 05:22:00,48.0,48.0,30.14,SW,222,0.0,2.0,100,0.04,,,0.87,,2013-04-28 09:22:00,
2013-04-28 05:33:00,47.0,47.0,30.12,SE,127,0.0,0.0,100,0.03,,,0.87,,2013-04-28 09:33:00,
2013-04-28 05:42:00,47.0,47.0,30.12,SE,127,0.0,0.0,100,0.03,,,0.87,,2013-04-28 09:42:00,
2013-04-28 05:53:00,47.0,47.0,30.12,SE,127,0.0,0.0,100,0.03,,,0.87,,2013-04-28 09:53:00,
2013-04-28 06:03:00,47.0,47.0,30.12,ESE,109,0.0,2.0,100,0.01,,,0.88,,2013-04-28 10:03:00,
2013-04-28 06:12:00,47.0,47.0,30.12,ESE,109,0.0,2.0,100,0.01,,,0.88,,2013-04-28 10:12:00,
2013-04-28 06:23:00,47.0,47.0,30.12,ESE,109,0.0,2.0,100,0.01,,,0.88,,2013-04-28 10:23:00,
2013-04-28 06:32:00,47.0,47.0,30.11,ESE,109,0.0,0.0,100,0.01,,,0.88,,2013-04-28 10:32:00,
2013-04-28 06:42:00,47.0,47.0,30.11,ESE,109,0.0,0.0,100,0.01,,,0.88,,2013-04-28 10:42:00,
2013-04-28 06:53:00,47.0,47.0,30.11,ESE,109,0.0,0.0,100,0.01,,,0.88,,2013-04-28 10:53:00,
2013-04-28 07:02:00,47.0,47.0,30.11,ESE,109,0.0,0.0,100,0.00,,,0.88,,2013-04-28 11:02:00,
2013-04-28 07:11:00,47.0,47.0,30.11,ESE,109,0.0,0.0,100,0.00,,,0.88,,2013-04-28 11:11:00,
2013-04-28 07:22:00,47.0,47.0,30.11,ESE,109,0.0,0.0,100,0.00,,,0.88,,2013-04-28 11:22:00,
2013-04-28 07:32:00,47.0,47.0,30.12,ESE,109,0.0,0.0,100,0.02,,,0.89,,2013-04-28 11:32:00,
2013-04-28 07:42:00,47.0,47.0,30.12,ESE,109,0.0,0.0,100,0.02,,,0.89,,2013-04-28 11:42:00,
2013-04-28 07:52:00,47.0,47.0,30.12,ESE,109,0.0,0.0,100,0.02,,,0.89,,2013-04-28 11:52:00,
2013-04-28 08:02:00,46.0,46.0,30.12,ESE,109,0.0,0.0,100,0.10,,,0.97,,2013-04-28 12:02:00,
2013-04-28 08:12:00,46.0,46.0,30.12,ESE,109,0.0,0.0,100,0.10,,,0.97,,2013-04-28 12:12:00,
2013-04-28 08:22:00,46.0,46.0,30.12,ESE,109,0.0,0.0,100,0.10,,,0.97,,2013-04-28 12:22:00,
2013-04-28 08:32:00,46.0,46.0,30.13,ESE,109,0.0,0.0,100,2.13,,,2.22,,2013-04-28 12:32:00,
2013-04-28 08:42:00,46.0,46.0,30.13,ESE,109,0.0,0.0,100,2.13,,,2.22,,2013-04-28 12:42:00,
2013-04-28 08:52:00,46.0,46.0,30.13,ESE,109,0.0,0.0,100,2.13,,,2.22,,2013-04-28 12:52:00,
2013-04-28 09:02:00,46.0,46.0,30.13,ESE,109,0.0,0.0,100,2.12,,,2.22,,2013-04-28 13:02:00,
2013-04-28 09:11:00,46.0,46.0,30.13,ESE,109,0.0,0.0,100,2.12,,,2.22,,2013-04-28 13:11:00,
2013-04-28 09:21:00,46.0,46.0,30.13,ESE,109,0.0,0.0,100,2.12,,,2.22,,2013-04-28 13:21:00,
2013-04-28 09:32:00,45.0,45.0,30.16,ESE,109,0.0,0.0,100,0.06,,,2.22,,2013-04-28 13:32:00,
2013-04-28 09:42:00,45.0,45.0,30.16,ESE,109,0.0,0.0,100,0.06,,,2.22,,2013-04-28 13:42:00,
2013-04-28 09:52:00,45.0,45.0,30.16,ESE,109,0.0,0.0,100,0.06,,,2.22,,2013-04-28 13:52:00,
2013-04-28 10:02:00,46.0,46.0,30.13,ESE,109,0.0,0.0,100,0.13,,,2.23,,2013-04-28 14:02:00,
2013-04-28 10:11:00,46.0,46.0,30.13,ESE,109,0.0,0.0,100,0.13,,,2.23,,2013-04-28 14:11:00,
2013-04-28 10:22:00,46.0,46.0,30.13,ESE,109,0.0,0.0,100,0.13,,,2.23,,2013-04-28 14:22:00,
2013-04-28 10:32:00,46.0,46.0,30.12,ESE,109,0.0,0.0,100,0.17,,,2.24,,2013-04-28 14:32:00,
2013-04-28 10:42:00,46.0,46.0,30.12,ESE,109,0.0,0.0,100,0.17,,,2.24,,2013-04-28 14:42:00,
2013-04-28 10:52:00,46.0,46.0,30.12,ESE,109,0.0,0.0,100,0.17,,,2.24,,2013-04-28 14:52:00,
2013-04-28 11:02:00,46.0,46.0,30.12,ESE,109,0.0,0.0,100,0.14,,,2.25,,2013-04-28 15:02:00,
2013-04-28 11:12:00,46.0,46.0,30.12,ESE,109,0.0,0.0,100,0.14,,,2.25,,2013-04-28 15:12:00,
2013-04-28 11:21:00,46.0,46.0,30.12,ESE,109,0.0,0.0,100,0.14,,,2.25,,2013-04-28 15:21:00,
2013-04-28 11:32:00,46.0,46.0,30.12,ESE,109,0.0,0.0,100,0.19,,,2.26,,2013-04-28 15:32:00,
2013-04-28 11:42:00,46.0,46.0,30.12,ESE,109,0.0,0.0,100,0.19,,,2.26,,2013-04-28 15:42:00,
2013-04-28 11:53:00,46.0,46.0,30.12,ESE,109,0.0,0.0,100,0.19,,,2.26,,2013-04-28 15:53:00,
2013-04-28 12:03:00,47.0,47.0,30.11,ESE,109,0.0,0.0,100,0.25,,,2.27,,2013-04-28 16:03:00,
2013-04-28 12:12:00,47.0,47.0,30.12,ESE,109,1.0,2.0,100,0.26,,,2.28,,2013-04-28 16:12:00,
2013-04-28 12:13:00,47.0,47.0,30.11,ESE,109,0.0,0.0,100,0.25,,,2.27,,2013-04-28 16:13:00,
2013-04-28 12:23:00,47.0,47.0,30.11,ESE,109,0.0,0.0,100,0.25,,,2.27,,2013-04-28 16:23:00,
2013-04-28 12:33:00,47.0,47.0,30.12,ESE,109,1.0,2.0,100,0.26,,,2.28,,2013-04-28 16:33:00,
2013-04-28 12:42:00,47.0,47.0,30.12,ESE,109,1.0,2.0,100,0.26,,,2.28,,2013-04-28 16:42:00,
2013-04-28 12:52:00,47.0,47.0,30.12,ESE,109,1.0,2.0,100,0.26,,,2.28,,2013-04-28 16:52:00,
2013-04-28 13:02:00,47.0,47.0,30.12,ESE,109,1.0,2.0,100,0.26,,,2.28,,2013-04-28 17:02:00,
2013-04-28 13:32:00,47.0,47.0,30.10,SSW,208,0.0,0.0,100,0.22,,,2.30,,2013-04-28 17:32:00,
2013-04-28 13:43:00,47.0,47.0,30.10,SSW,208,0.0,0.0,100,0.22,,,2.30,,2013-04-28 17:43:00,
2013-04-28 13:52:00,47.0,47.0,30.10,SSW,208,0.0,0.0,100,0.22,,,2.30,,2013-04-28 17:52:00,
2013-04-28 14:02:00,48.0,48.0,30.11,SSW,208,0.0,0.0,100,0.08,,,2.30,,2013-04-28 18:02:00,
2013-04-28 14:12:00,48.0,48.0,30.11,SSW,208,0.0,0.0,100,0.08,,,2.30,,2013-04-28 18:12:00,
2013-04-28 14:22:00,48.0,48.0,30.11,SSW,208,0.0,0.0,100,0.08,,,2.30,,2013-04-28 18:22:00,
2013-04-28 14:32:00,49.0,49.0,30.09,SSW,208,0.0,0.0,100,0.06,,,2.29,,2013-04-28 18:32:00,
2013-04-28 14:42:00,49.0,49.0,30.09,SSW,208,0.0,0.0,100,0.06,,,2.29,,2013-04-28 18:42:00,
2013-04-28 14:52:00,49.0,49.0,30.09,SSW,208,0.0,0.0,100,0.06,,,2.29,,2013-04-28 18:52:00,
2013-04-28 15:02:00,49.0,49.0,30.09,SSW,208,0.0,0.0,100,0.06,,,2.30,,2013-04-28 19:02:00,
2013-04-28 15:11:00,49.0,49.0,30.09,SSW,208,0.0,0.0,100,0.06,,,2.30,,2013-04-28 19:11:00,
2013-04-28 15:22:00,49.0,49.0,30.09,SSW,208,0.0,0.0,100,0.06,,,2.30,,2013-04-28 19:22:00,
2013-04-28 15:32:00,49.0,49.0,30.08,SSW,208,0.0,0.0,100,0.04,,,2.28,,2013-04-28 19:32:00,
2013-04-28 15:42:00,49.0,49.0,30.08,SSW,208,0.0,0.0,100,0.04,,,2.28,,2013-04-28 19:42:00,
2013-04-28 15:52:00,49.0,49.0,30.08,SSW,208,0.0,0.0,100,0.04,,,2.28,,2013-04-28 19:52:00,
2013-04-28 16:02:00,49.0,49.0,30.07,SSW,208,0.0,0.0,100,0.10,,,2.29,,2013-04-28 20:02:00,
2013-04-28 16:12:00,49.0,49.0,30.07,SSW,208,0.0,0.0,100,0.10,,,2.29,,2013-04-28 20:12:00,
2013-04-28 16:22:00,49.0,49.0,30.07,SSW,208,0.0,0.0,100,0.10,,,2.29,,2013-04-28 20:22:00,
2013-04-28 16:32:00,50.0,50.0,30.06,SSW,208,0.0,0.0,100,0.16,,,2.29,,2013-04-28 20:32:00,
2013-04-28 16:42:00,50.0,50.0,30.06,SSW,208,0.0,0.0,100,0.16,,,2.29,,2013-04-28 20:42:00,
2013-04-28 16:52:00,50.0,50.0,30.06,SSW,208,0.0,0.0,100,0.16,,,2.29,,2013-04-28 20:52:00,
2013-04-28 17:01:00,50.0,50.0,30.06,SSW,208,0.0,0.0,100,0.17,,,2.30,,2013-04-28 21:01:00,
2013-04-28 17:11:00,50.0,50.0,30.06,SSW,208,0.0,0.0,100,0.17,,,2.30,,2013-04-28 21:11:00,
2013-04-28 17:22:00,50.0,50.0,30.06,SSW,208,0.0,0.0,100,0.17,,,2.30,,2013-04-28 21:22:00,
2013-04-28 17:33:00,50.0,50.0,30.06,SSW,208,0.0,0.0,100,0.17,,,2.30,,2013-04-28 21:33:00,
2013-04-28 18:03:00,50.0,50.0,30.05,SSW,208,0.0,2.0,100,0.07,,,2.30,,2013-04-28 22:03:00,
2013-04-28 18:13:00,50.0,50.0,30.05,SSW,208,0.0,2.0,100,0.07,,,2.30,,2013-04-28 22:13:00,
2013-04-28 18:23:00,50.0,50.0,30.05,SSW,208,0.0,2.0,100,0.07,,,2.30,,2013-04-28 22:23:00,
2013-04-28 18:33:00,50.0,50.0,30.07,SSW,208,0.0,0.0,100,0.15,,,2.30,,2013-04-28 22:33:00,
2013-04-28 18:42:00,50.0,50.0,30.07,SSW,208,0.0,0.0,100,0.15,,,2.30,,2013-04-28 22:42:00,
2013-04-28 18:52:00,50.0,50.0,30.07,SSW,208,0.0,0.0,100,0.15,,,2.30,,2013-04-28 22:52:00,
2013-04-28 19:02:00,50.0,50.0,30.07,SSW,208,0.0,0.0,100,0.21,,,2.31,,2013-04-28 23:02:00,
2013-04-28 19:12:00,50.0,50.0,30.07,SSW,208,0.0,0.0,100,0.21,,,2.31,,2013-04-28 23:12:00,
2013-04-28 19:22:00,50.0,50.0,30.07,SSW,208,0.0,0.0,100,0.21,,,2.31,,2013-04-28 23:22:00,
2013-04-28 19:32:00,50.0,50.0,30.06,SSW,208,0.0,0.0,100,0.17,,,2.31,,2013-04-28 23:32:00,
2013-04-28 19:42:00,50.0,50.0,30.06,SSW,208,0.0,0.0,100,0.17,,,2.31,,2013-04-28 23:42:00,
2013-04-28 19:52:00,50.0,50.0,30.06,SSW,208,0.0,0.0,100,0.17,,,2.31,,2013-04-28 23:52:00,
2013-04-28 20:01:00,50.0,50.0,30.04,SSW,208,0.0,0.0,100,0.09,,,2.31,,2013-04-29 00:01:00,
2013-04-28 20:11:00,50.0,50.0,30.04,SSW,208,0.0,0.0,100,0.09,,,2.31,,2013-04-29 00:11:00,
2013-04-28 20:22:00,50.0,50.0,30.04,SSW,208,0.0,0.0,100,0.09,,,2.31,,2013-04-29 00:22:00,
2013-04-28 20:32:00,49.0,49.0,30.02,SSW,208,0.0,0.0,100,0.02,,,2.30,,2013-04-29 00:32:00,
2013-04-28 20:42:00,49.0,49.0,30.02,SSW,208,0.0,0.0,100,0.02,,,2.30,,2013-04-29 00:42:00,
2013-04-28 20:52:00,49.0,49.0,30.02,SSW,208,0.0,0.0,100,0.02,,,2.30,,2013-04-29 00:52:00,
2013-04-28 21:01:00,49.0,49.0,30.01,SSW,208,0.0,0.0,100,0.00,,,2.30,,2013-04-29 01:01:00,
2013-04-28 21:12:00,49.0,49.0,30.01,SSW,208,0.0,0.0,100,0.00,,,2.30,,2013-04-29 01:12:00,
2013-04-28 21:22:00,49.0,49.0,30.01,SSW,208,0.0,0.0,100,0.00,,,2.30,,2013-04-29 01:22:00,
2013-04-28 21:32:00,49.0,49.0,30.00,SSW,208,0.0,0.0,100,0.00,,,2.30,,2013-04-29 01:32:00,
2013-04-28 21:42:00,49.0,49.0,30.00,SSW,208,0.0,0.0,100,0.00,,,2.30,,2013-04-29 01:42:00,
2013-04-28 21:52:00,49.0,49.0,30.00,SSW,208,0.0,0.0,100,0.00,,,2.30,,2013-04-29 01:52:00,
2013-04-28 22:02:00,49.0,49.0,29.97,SSW,208,0.0,0.0,100,0.00,,,2.30,,2013-04-29 02:02:00,
2013-04-28 22:11:00,49.0,49.0,29.97,SSW,208,0.0,0.0,100,0.00,,,2.30,,2013-04-29 02:11:00,
2013-04-28 22:22:00,49.0,49.0,29.97,SSW,208,0.0,0.0,100,0.00,,,2.30,,2013-04-29 02:22:00,
2013-04-28 22:32:00,49.0,49.0,29.99,SSW,209,0.0,0.0,100,0.00,,,2.30,,2013-04-29 02:32:00,
2013-04-28 22:42:00,49.0,49.0,29.99,SSW,209,0.0,0.0,100,0.00,,,2.30,,2013-04-29 02:42:00,
2013-04-28 22:52:00,49.0,49.0,29.99,SSW,209,0.0,0.0,100,0.00,,,2.30,,2013-04-29 02:52:00,
2013-04-28 23:01:00,49.0,49.0,29.99,SSW,208,0.0,2.0,100,0.00,,,2.30,,2013-04-29 03:01:00,
2013-04-28 23:12:00,49.0,49.0,29.99,SSW,208,0.0,2.0,100,0.00,,,2.30,,2013-04-29 03:12:00,
2013-04-28 23:22:00,49.0,49.0,29.99,SSW,208,0.0,2.0,100,0.00,,,2.30,,2013-04-29 03:22:00,
2013-04-28 23:33:00,49.0,49.0,30.03,SSW,208,0.0,0.0,100,0.00,,,2.30,,2013-04-29 03:33:00,
2013-04-28 23:42:00,49.0,49.0,30.03,SSW,208,0.0,0.0,100,0.00,,,2.30,,2013-04-29 03:42:00,
2013-04-28 23:53:00,49.0,49.0,30.03,SSW,208,0.0,0.0,100,0.00,,,2.30,,2013-04-29 03:53:00,